Regional Weather Roundup
Issued by NWS Northern Indiana

Home | Current Version | Previous Version | Text Only | Print | Product List | Glossary Off
Versions: 1 2 3 4 5 6 7 8 9 10 11 12 13 14 15 16 17 18 19 20 21 22 23 24 25 26 27 28 29 30 31 32 33 34 35 36 37 38 39 40 41 42 43 44 45 46 47 48 49 50

000
ASUS43 KIWX 220700
RWRIWX

KIWX WEATHER ROUNDUP
NATIONAL WEATHER SERVICE NORTHERN INDIANA
300 AM EDT MON SEP 22 2014

NOTE: "FAIR" INDICATES FEW OR NO CLOUDS BELOW 12,000 FEET WITH NO
SIGNIFICANT WEATHER AND/OR OBSTRUCTIONS TO VISIBILITY.

* THESE STATIONS ARE NOT UNDER NWS QUALITY CONTROL. THEY ALSO MAY NOT
  REPORT WEATHER SUCH AS PRECIPITATION OR FOG.

INZ001>027-220800-
NORTHERN INDIANA

CITY           SKY/WX    TMP DP  RH WIND       PRES   REMARKS
VALPARAISO     PTCLDY    51  44  77 N6        30.15R
SOUTH BEND     CLOUDY    49  42  77 N8        30.14R
GOSHEN         MOCLDY   N/A N/A N/A N9        30.13R
ANGOLA*        CLOUDY    46  34  61 N6        30.10S
FORT WAYNE     PTCLDY    46  39  76 N10       30.11S
PERU/GRISSOM   CLEAR     49  49 100 N2        30.12R

$$
INZ028>050-220800-
CENTRAL INDIANA

CITY           SKY/WX    TMP DP  RH WIND       PRES   REMARKS
LAFAYETTE      PTCLDY    48  48 100 NW5       30.14R
KOKOMO*        CLEAR     48  43  81 N6        30.13S
MUNCIE*        PTCLDY    48  45  89 N6        30.10S
INDIANAPOLIS   PTCLDY    52  48  86 NW7       30.11R

$$
MIZ043>046-050>051-056>058-064>065-071>073-077>080-220800-
SOUTHWEST LOWER MICHIGAN

CITY           SKY/WX    TMP DP  RH WIND       PRES   REMARKS
BATTLE CREEK   CLOUDY    47  37  68 N10       30.12R
BENTON HARBOR  CLOUDY    48  41  76 NE5       30.14S
COLDWATER*     CLOUDY    47  39  72 N8        30.11S
HILLSDALE*     CLOUDY    47  40  76 N8        30.09S
HOLLAND        CLOUDY    49  40  71 N5        30.16R
GRAND RAPIDS   CLOUDY    48  39  71 NW8       30.13S
KALAMAZOO      CLOUDY    47  36  65 N13       30.13R
STURGIS*       CLOUDY    45  39  81 NW7       30.11S
THREE RIVERS*  CLOUDY    46  40  79 N5        30.13S

$$
OHZ001>008-015>018-024>025-220800-
NORTHWEST OHIO

CITY           SKY/WX    TMP DP  RH WIND       PRES   REMARKS
DEFIANCE       CLOUDY   N/A N/A N/A N10       30.09R
FINDLAY        CLOUDY    50  45  83 N12       30.05S
TOLEDO EXPRESS CLOUDY    48  41  76 N10       30.07R
TOLEDO METCALF CLOUDY    50  41  71 NW14      30.08R
LIMA           PTCLDY    49  45  86 NW8       30.06S

$$
AND FOR LAKE MICHIGAN COASTAL AND OPEN LAKE BUOY OBSERVATIONS

STATION/POSITION TEMP    WIND        PRES    VSBY  WAVE
                 AIR SEA DIR/SP/G                  HT/PER
                 (F)     (DEG/KT/KT) (MB)    (MI)  (FT/S)
CALUMET HARBOR    56     360/ 12/ 18 1019.9R
MICHIGAN CITY     55     360/ 23/ 27   N/A
SAINT JOSEPH      55     330/ 17/ 22 1020.7S
SOUTH LAKE BUOY   54 61  350/ 19/ 25 1020.7R         7/ 8
4 MI NW BRIDGMAN  55 65  360/ 19/ 25   N/A           7/ 7
MICHIGAN CITY     56 64   10/ 17/ 23   N/A           8/ 6

$$
&&



USA.gov is the U.S. government's official web portal to all federal, state and local government web resources and services.